ACN1212 SBPL-SBSV

Flight info

Callsign ACN1212
Flight time N/A
Altitude 8000
Route EDMUP DCT DORMU
Aircraft C208/L-SDFGR/C

Departure

Time 2026-04-21 18:25
Airport Senador Nilo Coelho Airport (SBPL)

Arrival

Time N/A
Airport Deputado Luiz Eduardo Magalhães International Airport (SBSV)
Time Latitude Longitude Altitude Speed Heading
2026-04-21 18:14 -9.36600 -40.56468 1270 ft 0 kts 288°
2026-04-21 18:19 -9.36599 -40.56471 1270 ft 1 kts 291°
2026-04-21 18:20 -9.36563 -40.56508 1270 ft 12 kts 303°
2026-04-21 18:20 -9.36537 -40.56579 1270 ft 9 kts 300°
2026-04-21 18:20 -9.36483 -40.56587 1270 ft 8 kts 24°
2026-04-21 18:20 -9.36460 -40.56578 1270 ft 0 kts 21°
2026-04-21 18:21 -9.36438 -40.56570 1270 ft 9 kts 18°
2026-04-21 18:21 -9.36361 -40.56587 1270 ft 14 kts 298°
2026-04-21 18:21 -9.36319 -40.56706 1270 ft 22 kts 289°
2026-04-21 18:22 -9.36259 -40.56884 1267 ft 30 kts 289°
2026-04-21 18:22 -9.36185 -40.57099 1266 ft 34 kts 290°
2026-04-21 18:22 -9.36103 -40.57341 1263 ft 37 kts 289°
2026-04-21 18:22 -9.36021 -40.57579 1261 ft 33 kts 289°
2026-04-21 18:23 -9.35949 -40.57790 1261 ft 29 kts 288°
2026-04-21 18:23 -9.35891 -40.57973 1261 ft 13 kts 277°
2026-04-21 18:23 -9.35899 -40.58052 1261 ft 12 kts 252°
2026-04-21 18:23 -9.35849 -40.58072 1261 ft 10 kts 78°
2026-04-21 18:24 -9.35870 -40.58010 1261 ft 8 kts 111°
2026-04-21 18:24 -9.35894 -40.57936 1261 ft 30 kts 107°
2026-04-21 18:24 -9.36047 -40.57497 1262 ft 95 kts 107°
2026-04-21 18:24 -9.36288 -40.56772 1384 ft 115 kts 109°
2026-04-21 18:25 -9.36557 -40.56018 1712 ft 109 kts 106°
2026-04-21 18:25 -9.36936 -40.55336 1877 ft 121 kts 139°
2026-04-21 18:25 -9.37781 -40.55115 1998 ft 135 kts 183°
2026-04-21 18:25 -9.38726 -40.55359 2066 ft 147 kts 189°
2026-04-21 18:26 -9.39755 -40.55498 2176 ft 150 kts 178°
2026-04-21 18:26 -9.40817 -40.55480 2286 ft 152 kts 173°
2026-04-21 18:26 -9.41884 -40.55366 2397 ft 153 kts 169°
2026-04-21 18:26 -9.42949 -40.55202 2503 ft 153 kts 167°
2026-04-21 18:27 -9.43998 -40.55024 2621 ft 153 kts 166°
2026-04-21 18:27 -9.45063 -40.54829 2735 ft 153 kts 166°
2026-04-21 18:27 -9.46119 -40.54635 2846 ft 153 kts 166°
2026-04-21 18:27 -9.47181 -40.54441 2956 ft 152 kts 166°
2026-04-21 18:28 -9.48236 -40.54244 3069 ft 152 kts 166°
2026-04-21 18:28 -9.49286 -40.54048 3176 ft 152 kts 166°
2026-04-21 18:28 -9.50326 -40.53857 3288 ft 152 kts 166°
2026-04-21 18:28 -9.51378 -40.53659 3397 ft 152 kts 166°
2026-04-21 18:29 -9.52428 -40.53466 3507 ft 152 kts 166°
2026-04-21 18:29 -9.53475 -40.53271 3622 ft 152 kts 166°
2026-04-21 18:29 -9.54514 -40.53079 3733 ft 152 kts 166°
2026-04-21 18:29 -9.55560 -40.52882 3846 ft 152 kts 166°
2026-04-21 18:30 -9.56617 -40.52687 3962 ft 152 kts 165°
2026-04-21 18:30 -9.57663 -40.52494 4068 ft 153 kts 166°
2026-04-21 18:30 -9.58722 -40.52298 4178 ft 153 kts 166°
2026-04-21 18:30 -9.59761 -40.52102 4289 ft 153 kts 166°
2026-04-21 18:31 -9.60826 -40.51904 4394 ft 153 kts 166°
2026-04-21 18:31 -9.61882 -40.51709 4507 ft 153 kts 166°
2026-04-21 18:31 -9.62924 -40.51514 4619 ft 153 kts 166°
2026-04-21 18:31 -9.63993 -40.51316 4731 ft 154 kts 166°
2026-04-21 18:32 -9.65048 -40.51121 4843 ft 154 kts 166°
2026-04-21 18:32 -9.66101 -40.50925 4955 ft 153 kts 166°
2026-04-21 18:32 -9.67155 -40.50729 5067 ft 154 kts 166°
2026-04-21 18:32 -9.68208 -40.50534 5178 ft 154 kts 166°
2026-04-21 18:33 -9.69266 -40.50290 5292 ft 153 kts 162°
2026-04-21 18:33 -9.70302 -40.50021 5402 ft 154 kts 162°
2026-04-21 18:33 -9.71343 -40.49745 5516 ft 154 kts 162°
2026-04-21 18:33 -9.72375 -40.49474 5629 ft 154 kts 162°
2026-04-21 18:34 -9.73429 -40.49197 5744 ft 154 kts 162°
2026-04-21 18:34 -9.74470 -40.48925 5857 ft 154 kts 162°
2026-04-21 18:34 -9.75513 -40.48652 5970 ft 154 kts 162°
2026-04-21 18:34 -9.76559 -40.48377 6084 ft 155 kts 162°
2026-04-21 18:35 -9.77264 -40.48192 6153 ft 155 kts 162°
2026-04-21 18:35 -9.78653 -40.47829 6302 ft 155 kts 163°
2026-04-21 18:35 -9.79703 -40.47554 6422 ft 155 kts 162°
2026-04-21 18:35 -9.80748 -40.47281 6540 ft 155 kts 162°
2026-04-21 18:36 -9.81808 -40.47002 6659 ft 155 kts 162°
2026-04-21 18:36 -9.82862 -40.46726 6775 ft 156 kts 162°
2026-04-21 18:36 -9.83911 -40.46453 6891 ft 156 kts 163°
2026-04-21 18:36 -9.84969 -40.46178 7006 ft 156 kts 163°
2026-04-21 18:37 -9.86028 -40.45902 7122 ft 157 kts 163°
2026-04-21 18:37 -9.87092 -40.45626 7240 ft 158 kts 163°
2026-04-21 18:37 -9.88174 -40.45345 7357 ft 158 kts 163°
2026-04-21 18:37 -9.89245 -40.45065 7470 ft 159 kts 163°
2026-04-21 18:38 -9.90313 -40.44785 7572 ft 159 kts 163°
2026-04-21 18:38 -9.91391 -40.44505 7673 ft 159 kts 163°
2026-04-21 18:38 -9.92470 -40.44221 7785 ft 159 kts 163°
2026-04-21 18:38 -9.93552 -40.43940 7890 ft 159 kts 163°
2026-04-21 18:39 -9.94620 -40.43657 7996 ft 159 kts 164°
2026-04-21 18:39 -9.95708 -40.43369 8054 ft 163 kts 163°
2026-04-21 18:39 -9.96825 -40.43084 8058 ft 166 kts 163°
2026-04-21 18:39 -9.97957 -40.42780 8060 ft 168 kts 164°
2026-04-21 18:40 -9.99098 -40.42484 8060 ft 170 kts 163°
2026-04-21 18:40 -10.00249 -40.42181 8058 ft 170 kts 163°
2026-04-21 18:40 -10.01025 -40.41980 8064 ft 170 kts 163°
2026-04-21 18:40 -10.02560 -40.41577 8066 ft 171 kts 163°
2026-04-21 18:41 -10.03719 -40.41273 8065 ft 171 kts 163°
2026-04-21 18:41 -10.04880 -40.40968 8062 ft 171 kts 163°
2026-04-21 18:41 -10.06038 -40.40665 8063 ft 171 kts 163°
2026-04-21 18:41 -10.07198 -40.40362 8056 ft 172 kts 163°
2026-04-21 18:42 -10.08352 -40.40056 8051 ft 171 kts 163°
2026-04-21 18:42 -10.09517 -40.39750 8052 ft 171 kts 163°
2026-04-21 18:42 -10.10664 -40.39451 8058 ft 170 kts 163°
2026-04-21 18:42 -10.11816 -40.39149 8062 ft 171 kts 163°
2026-04-21 18:43 -10.12978 -40.38842 8063 ft 171 kts 163°
2026-04-21 18:43 -10.14147 -40.38536 8065 ft 172 kts 163°
2026-04-21 18:43 -10.15311 -40.38229 8064 ft 172 kts 163°
2026-04-21 18:43 -10.16462 -40.37928 8067 ft 172 kts 163°
2026-04-21 18:44 -10.17637 -40.37619 8068 ft 172 kts 163°
2026-04-21 18:44 -10.18799 -40.37315 8069 ft 172 kts 164°
2026-04-21 18:44 -10.19951 -40.37013 8073 ft 172 kts 163°
2026-04-21 18:44 -10.21127 -40.36704 8074 ft 172 kts 163°
2026-04-21 18:45 -10.22280 -40.36401 8076 ft 172 kts 163°
2026-04-21 18:45 -10.23450 -40.36093 8078 ft 172 kts 163°
2026-04-21 18:45 -10.24621 -40.35786 8080 ft 172 kts 163°
2026-04-21 18:45 -10.25781 -40.35481 8079 ft 172 kts 163°
2026-04-21 18:46 -10.26948 -40.35175 8077 ft 172 kts 163°
2026-04-21 18:46 -10.28104 -40.34870 8079 ft 171 kts 163°
2026-04-21 18:46 -10.29262 -40.34566 8077 ft 171 kts 163°
2026-04-21 18:46 -10.30416 -40.34263 8074 ft 171 kts 163°
2026-04-21 18:47 -10.31584 -40.33956 8074 ft 171 kts 163°
2026-04-21 18:47 -10.32737 -40.33654 8076 ft 171 kts 163°
2026-04-21 18:47 -10.33896 -40.33348 8076 ft 172 kts 163°
2026-04-21 18:47 -10.35057 -40.33043 8073 ft 172 kts 163°
2026-04-21 18:48 -10.36230 -40.32735 8072 ft 172 kts 163°
2026-04-21 18:48 -10.37389 -40.32430 8070 ft 172 kts 163°
2026-04-21 18:48 -10.38550 -40.32125 8070 ft 172 kts 163°
2026-04-21 18:48 -10.39725 -40.31815 8069 ft 172 kts 163°
2026-04-21 18:49 -10.40879 -40.31512 8072 ft 172 kts 163°
2026-04-21 18:49 -10.42041 -40.31207 8073 ft 172 kts 163°
2026-04-21 18:49 -10.42825 -40.31000 8073 ft 172 kts 163°
2026-04-21 18:49 -10.44375 -40.30593 8071 ft 172 kts 163°
2026-04-21 18:50 -10.45546 -40.30284 8068 ft 172 kts 163°
2026-04-21 18:50 -10.46710 -40.29977 8066 ft 172 kts 163°
2026-04-21 18:50 -10.47869 -40.29673 8064 ft 172 kts 163°
2026-04-21 18:50 -10.49036 -40.29366 8061 ft 172 kts 163°
2026-04-21 18:51 -10.50210 -40.29058 8058 ft 172 kts 163°
2026-04-21 18:51 -10.51378 -40.28751 8055 ft 171 kts 163°
2026-04-21 18:51 -10.52539 -40.28445 8055 ft 171 kts 163°
2026-04-21 18:51 -10.53700 -40.28139 8053 ft 171 kts 163°
2026-04-21 18:52 -10.54870 -40.27831 8053 ft 171 kts 163°
2026-04-21 18:52 -10.56034 -40.27525 8051 ft 172 kts 163°
2026-04-21 18:52 -10.57185 -40.27222 8050 ft 172 kts 163°
2026-04-21 18:52 -10.58360 -40.26911 8048 ft 172 kts 163°
2026-04-21 18:53 -10.59516 -40.26608 8046 ft 172 kts 163°
2026-04-21 18:53 -10.60683 -40.26300 8046 ft 172 kts 163°
2026-04-21 18:53 -10.61843 -40.25995 8046 ft 172 kts 163°
2026-04-21 18:53 -10.63003 -40.25690 8041 ft 172 kts 163°
2026-04-21 18:54 -10.64175 -40.25380 8038 ft 172 kts 163°
2026-04-21 18:54 -10.65330 -40.25076 8034 ft 172 kts 163°
2026-04-21 18:54 -10.66494 -40.24769 8030 ft 172 kts 163°
2026-04-21 18:54 -10.67665 -40.24461 8030 ft 171 kts 163°
2026-04-21 18:55 -10.68430 -40.24260 8030 ft 171 kts 163°
2026-04-21 18:55 -10.69977 -40.23853 8030 ft 171 kts 163°
2026-04-21 18:55 -10.71141 -40.23545 8028 ft 171 kts 163°
2026-04-21 18:55 -10.72298 -40.23240 8024 ft 172 kts 163°
2026-04-21 18:56 -10.73468 -40.22931 8019 ft 172 kts 163°
2026-04-21 18:56 -10.74624 -40.22626 8018 ft 172 kts 164°
2026-04-21 18:56 -10.75798 -40.22317 8019 ft 172 kts 163°
2026-04-21 18:56 -10.76955 -40.22013 8018 ft 172 kts 163°
2026-04-21 18:57 -10.78126 -40.21704 8022 ft 172 kts 163°
2026-04-21 18:57 -10.79285 -40.21399 8022 ft 172 kts 163°
2026-04-21 18:57 -10.80464 -40.21088 8020 ft 173 kts 163°
2026-04-21 18:57 -10.81632 -40.20780 8018 ft 172 kts 163°
2026-04-21 18:58 -10.82797 -40.20472 8019 ft 172 kts 163°
2026-04-21 18:58 -10.83963 -40.20164 8022 ft 172 kts 163°
2026-04-21 18:58 -10.85121 -40.19859 8023 ft 172 kts 163°
2026-04-21 18:58 -10.86280 -40.19553 8022 ft 172 kts 163°
2026-04-21 18:59 -10.87442 -40.19247 8020 ft 168 kts 164°
2026-04-21 18:59 -10.88555 -40.18957 8019 ft 161 kts 163°
2026-04-21 18:59 -10.89629 -40.18673 8019 ft 157 kts 163°
2026-04-21 18:59 -10.90683 -40.18394 8018 ft 156 kts 163°
2026-04-21 19:00 -10.91740 -40.18115 8020 ft 155 kts 163°
2026-04-21 19:00 -10.92781 -40.17840 8021 ft 154 kts 163°
2026-04-21 19:00 -10.93820 -40.17564 8021 ft 154 kts 163°
2026-04-21 19:00 -10.94858 -40.17289 8023 ft 154 kts 163°
2026-04-21 19:01 -10.95909 -40.17011 8024 ft 154 kts 163°
2026-04-21 19:01 -10.96940 -40.16738 8022 ft 153 kts 163°
2026-04-21 19:01 -10.97976 -40.16464 8023 ft 153 kts 163°
2026-04-21 19:01 -10.99021 -40.16188 8025 ft 153 kts 163°
2026-04-21 19:02 -11.00053 -40.15916 8028 ft 153 kts 163°
2026-04-21 19:02 -11.01083 -40.15644 8033 ft 153 kts 163°
2026-04-21 19:02 -11.02120 -40.15371 8035 ft 153 kts 163°
2026-04-21 19:02 -11.03162 -40.15095 8031 ft 153 kts 163°
2026-04-21 19:03 -11.04198 -40.14821 8025 ft 153 kts 163°
2026-04-21 19:03 -11.05243 -40.14545 8019 ft 153 kts 163°
2026-04-21 19:03 -11.06277 -40.14273 8017 ft 153 kts 163°
2026-04-21 19:03 -11.07306 -40.14001 8019 ft 153 kts 163°
2026-04-21 19:04 -11.08350 -40.13725 8020 ft 153 kts 163°
2026-04-21 19:04 -11.09382 -40.13452 8020 ft 153 kts 163°
2026-04-21 19:04 -11.10425 -40.13176 8018 ft 154 kts 163°
2026-04-21 19:04 -11.11469 -40.12900 8019 ft 153 kts 163°
2026-04-21 19:05 -11.12505 -40.12626 8021 ft 153 kts 163°
2026-04-21 19:05 -11.13546 -40.12352 8022 ft 153 kts 163°
2026-04-21 19:05 -11.14584 -40.12077 8022 ft 153 kts 163°
2026-04-21 19:05 -11.15626 -40.11801 8023 ft 153 kts 163°
2026-04-21 19:06 -11.16665 -40.11527 8022 ft 153 kts 164°
2026-04-21 19:06 -11.17694 -40.11253 8024 ft 153 kts 163°
2026-04-21 19:06 -11.18733 -40.10981 8025 ft 153 kts 163°
2026-04-21 19:06 -11.19777 -40.10704 8024 ft 153 kts 163°
2026-04-21 19:07 -11.20813 -40.10432 8025 ft 153 kts 163°
2026-04-21 19:07 -11.21847 -40.10157 8021 ft 153 kts 163°
2026-04-21 19:07 -11.22898 -40.09881 8016 ft 153 kts 163°
2026-04-21 19:07 -11.23935 -40.09605 8016 ft 154 kts 163°
2026-04-21 19:08 -11.24976 -40.09330 8015 ft 153 kts 163°
2026-04-21 19:08 -11.26020 -40.09053 8014 ft 154 kts 163°
2026-04-21 19:08 -11.27062 -40.08777 8013 ft 154 kts 163°
2026-04-21 19:08 -11.28093 -40.08503 8016 ft 154 kts 163°
2026-04-21 19:09 -11.29139 -40.08227 8018 ft 153 kts 163°
2026-04-21 19:09 -11.30179 -40.07952 8018 ft 153 kts 163°
2026-04-21 19:09 -11.31218 -40.07677 8021 ft 153 kts 163°
2026-04-21 19:09 -11.32259 -40.07402 8021 ft 153 kts 163°
2026-04-21 19:10 -11.33290 -40.07129 8021 ft 153 kts 163°
2026-04-21 19:10 -11.34323 -40.06856 8020 ft 153 kts 163°
2026-04-21 19:10 -11.35368 -40.06580 8019 ft 153 kts 163°
2026-04-21 19:10 -11.36412 -40.06302 8013 ft 154 kts 163°
2026-04-21 19:11 -11.37443 -40.06030 8013 ft 153 kts 163°
2026-04-21 19:11 -11.38484 -40.05754 8010 ft 153 kts 163°
2026-04-21 19:11 -11.39520 -40.05481 8010 ft 153 kts 163°
2026-04-21 19:11 -11.40554 -40.05206 8005 ft 153 kts 163°
2026-04-21 19:12 -11.41253 -40.05020 8003 ft 153 kts 163°
2026-04-21 19:12 -11.42632 -40.04654 8009 ft 154 kts 163°
2026-04-21 19:12 -11.43678 -40.04377 8006 ft 154 kts 163°
2026-04-21 19:12 -11.44712 -40.04105 8011 ft 154 kts 163°
2026-04-21 19:13 -11.45747 -40.03831 8010 ft 154 kts 163°
2026-04-21 19:13 -11.46790 -40.03554 8010 ft 154 kts 163°
2026-04-21 19:13 -11.47834 -40.03278 8008 ft 154 kts 163°
2026-04-21 19:13 -11.48871 -40.03004 8006 ft 154 kts 163°
2026-04-21 19:14 -11.49922 -40.02724 8003 ft 153 kts 163°
2026-04-21 19:14 -11.50951 -40.02452 8005 ft 153 kts 163°
2026-04-21 19:14 -11.51997 -40.02175 8004 ft 153 kts 163°
2026-04-21 19:14 -11.53039 -40.01899 8006 ft 154 kts 163°
2026-04-21 19:15 -11.54069 -40.01624 8009 ft 154 kts 163°
2026-04-21 19:15 -11.55117 -40.01347 8009 ft 155 kts 163°
2026-04-21 19:15 -11.56165 -40.01068 8009 ft 155 kts 163°
2026-04-21 19:15 -11.57227 -40.00787 8010 ft 155 kts 163°
2026-04-21 19:16 -11.58278 -40.00509 8009 ft 155 kts 163°
2026-04-21 19:16 -11.59320 -40.00215 8009 ft 154 kts 155°
2026-04-21 19:16 -11.60192 -39.99593 8018 ft 152 kts 141°
2026-04-21 19:16 -11.61012 -39.98908 8019 ft 152 kts 139°
2026-04-21 19:17 -11.62631 -39.97503 8024 ft 152 kts 138°
2026-04-21 19:17 -11.63436 -39.96800 8027 ft 152 kts 138°
2026-04-21 19:17 -11.64247 -39.96094 8029 ft 152 kts 138°
2026-04-21 19:18 -11.65047 -39.95393 8030 ft 153 kts 138°
2026-04-21 19:18 -11.65863 -39.94683 8028 ft 152 kts 139°
2026-04-21 19:18 -11.66675 -39.93971 8031 ft 152 kts 139°
2026-04-21 19:18 -11.67489 -39.93261 8031 ft 153 kts 138°
2026-04-21 19:19 -11.68298 -39.92555 8031 ft 153 kts 139°
2026-04-21 19:19 -11.69108 -39.91848 8035 ft 153 kts 138°
2026-04-21 19:19 -11.69926 -39.91132 8036 ft 153 kts 138°
2026-04-21 19:19 -11.70739 -39.90421 8037 ft 153 kts 138°
2026-04-21 19:20 -11.71555 -39.89707 8035 ft 153 kts 138°
2026-04-21 19:20 -11.72373 -39.88993 8034 ft 153 kts 138°
2026-04-21 19:20 -11.73177 -39.88290 8036 ft 153 kts 138°
2026-04-21 19:20 -11.73992 -39.87578 8037 ft 153 kts 138°
2026-04-21 19:21 -11.74799 -39.86871 8039 ft 153 kts 138°
2026-04-21 19:21 -11.75618 -39.86156 8040 ft 153 kts 138°
2026-04-21 19:21 -11.76432 -39.85443 8038 ft 153 kts 138°
2026-04-21 19:21 -11.77246 -39.84731 8037 ft 153 kts 138°
2026-04-21 19:22 -11.78062 -39.84017 8034 ft 153 kts 138°
2026-04-21 19:22 -11.78870 -39.83311 8035 ft 153 kts 138°
2026-04-21 19:22 -11.79690 -39.82592 8031 ft 153 kts 138°
2026-04-21 19:22 -11.80496 -39.81887 8028 ft 153 kts 138°
2026-04-21 19:23 -11.81313 -39.81172 8031 ft 153 kts 138°
2026-04-21 19:23 -11.82123 -39.80464 8026 ft 153 kts 138°
2026-04-21 19:23 -11.82935 -39.79752 8026 ft 153 kts 138°
2026-04-21 19:23 -11.83748 -39.79040 8028 ft 153 kts 138°
2026-04-21 19:24 -11.84559 -39.78330 8026 ft 153 kts 138°
2026-04-21 19:24 -11.85361 -39.77629 8024 ft 153 kts 138°
2026-04-21 19:24 -11.86176 -39.76917 8026 ft 153 kts 137°
2026-04-21 19:24 -11.86986 -39.76205 8021 ft 153 kts 138°
2026-04-21 19:25 -11.87793 -39.75500 8025 ft 153 kts 138°
2026-04-21 19:25 -11.88610 -39.74783 8025 ft 153 kts 138°
2026-04-21 19:25 -11.89418 -39.74076 8021 ft 153 kts 138°
2026-04-21 19:25 -11.90235 -39.73360 8026 ft 153 kts 138°
2026-04-21 19:26 -11.91049 -39.72649 8031 ft 152 kts 137°
2026-04-21 19:26 -11.91862 -39.71936 8035 ft 153 kts 138°
2026-04-21 19:26 -11.92676 -39.71222 8034 ft 153 kts 137°
2026-04-21 19:26 -11.93485 -39.70513 8035 ft 153 kts 138°
2026-04-21 19:27 -11.94303 -39.69796 8026 ft 153 kts 137°
2026-04-21 19:27 -11.95124 -39.69076 8025 ft 153 kts 137°
2026-04-21 19:27 -11.95934 -39.68367 8020 ft 153 kts 138°
2026-04-21 19:27 -11.96753 -39.67649 8020 ft 153 kts 138°
2026-04-21 19:28 -11.97566 -39.66935 8020 ft 153 kts 138°
2026-04-21 19:28 -11.98382 -39.66221 8023 ft 154 kts 138°
2026-04-21 19:28 -11.99188 -39.65515 8023 ft 154 kts 137°
2026-04-21 19:28 -12.00009 -39.64795 8025 ft 154 kts 137°
2026-04-21 19:29 -12.00822 -39.64082 8025 ft 153 kts 138°
2026-04-21 19:29 -12.01640 -39.63365 8027 ft 153 kts 138°
2026-04-21 19:29 -12.02446 -39.62657 8024 ft 153 kts 137°
2026-04-21 19:29 -12.03260 -39.61944 8030 ft 153 kts 138°
2026-04-21 19:30 -12.04067 -39.61236 8030 ft 153 kts 138°
2026-04-21 19:30 -12.04884 -39.60520 8027 ft 153 kts 138°
2026-04-21 19:30 -12.05691 -39.59813 8029 ft 153 kts 138°
2026-04-21 19:30 -12.06504 -39.59098 8032 ft 153 kts 138°
2026-04-21 19:31 -12.07315 -39.58387 8036 ft 153 kts 137°
2026-04-21 19:31 -12.08133 -39.57669 8035 ft 154 kts 138°
2026-04-21 19:31 -12.08950 -39.56952 8035 ft 154 kts 137°
2026-04-21 19:31 -12.09771 -39.56231 8032 ft 154 kts 138°
2026-04-21 19:32 -12.10589 -39.55514 8032 ft 154 kts 138°
2026-04-21 19:32 -12.11420 -39.54779 8042 ft 162 kts 137°
2026-04-21 19:32 -12.12292 -39.54013 8035 ft 168 kts 138°
2026-04-21 19:32 -12.13174 -39.53249 8025 ft 155 kts 138°
2026-04-21 19:33 -12.13705 -39.52786 8024 ft 149 kts 137°
2026-04-21 19:33 -12.14752 -39.51862 8031 ft 150 kts 137°
2026-04-21 19:33 -12.15554 -39.51155 8032 ft 152 kts 137°
2026-04-21 19:33 -12.16370 -39.50437 8029 ft 154 kts 137°
2026-04-21 19:34 -12.17191 -39.49716 8029 ft 154 kts 137°
2026-04-21 19:34 -12.18012 -39.48993 8026 ft 155 kts 138°
2026-04-21 19:34 -12.18828 -39.48277 8028 ft 155 kts 137°
2026-04-21 19:34 -12.19657 -39.47549 8024 ft 156 kts 137°
2026-04-21 19:35 -12.20484 -39.46824 8021 ft 155 kts 137°
2026-04-21 19:35 -12.22123 -39.45383 8019 ft 156 kts 138°
2026-04-21 19:35 -12.22951 -39.44656 8018 ft 155 kts 137°
2026-04-21 19:36 -12.23775 -39.43932 8021 ft 155 kts 137°
2026-04-21 19:36 -12.24592 -39.43213 8022 ft 155 kts 137°
2026-04-21 19:36 -12.25416 -39.42489 8024 ft 155 kts 137°
2026-04-21 19:36 -12.26244 -39.41760 8026 ft 156 kts 138°
2026-04-21 19:37 -12.27074 -39.41031 8022 ft 156 kts 138°
2026-04-21 19:37 -12.27906 -39.40299 8021 ft 156 kts 138°
2026-04-21 19:37 -12.28730 -39.39574 8019 ft 155 kts 137°
2026-04-21 19:37 -12.29547 -39.38857 8020 ft 156 kts 138°
2026-04-21 19:38 -12.30381 -39.38124 8018 ft 156 kts 138°
2026-04-21 19:38 -12.31204 -39.37400 8016 ft 156 kts 137°
2026-04-21 19:38 -12.31757 -39.36913 8018 ft 156 kts 137°
2026-04-21 19:38 -12.32858 -39.35946 8018 ft 156 kts 138°
2026-04-21 19:39 -12.33682 -39.35221 8020 ft 156 kts 138°
2026-04-21 19:39 -12.34511 -39.34492 8019 ft 156 kts 137°
2026-04-21 19:39 -12.35334 -39.33767 8017 ft 156 kts 137°
2026-04-21 19:39 -12.36165 -39.33034 8018 ft 156 kts 137°
2026-04-21 19:40 -12.36988 -39.32310 8017 ft 156 kts 137°
2026-04-21 19:40 -12.37816 -39.31581 8023 ft 155 kts 137°
2026-04-21 19:40 -12.38634 -39.30863 8026 ft 155 kts 137°
2026-04-21 19:40 -12.39455 -39.30137 8021 ft 156 kts 137°
2026-04-21 19:41 -12.40290 -39.29404 8012 ft 156 kts 138°
2026-04-21 19:41 -12.41111 -39.28680 8019 ft 156 kts 137°
2026-04-21 19:41 -12.41942 -39.27950 8022 ft 156 kts 137°
2026-04-21 19:41 -12.42759 -39.27229 8029 ft 156 kts 137°
2026-04-21 19:42 -12.43600 -39.26494 7897 ft 164 kts 137°
2026-04-21 19:42 -12.44488 -39.25716 7668 ft 171 kts 138°
2026-04-21 19:42 -12.45404 -39.24919 7432 ft 173 kts 139°
2026-04-21 19:42 -12.46326 -39.24116 7202 ft 175 kts 138°
2026-04-21 19:43 -12.47264 -39.23301 6960 ft 175 kts 138°
2026-04-21 19:43 -12.48187 -39.22497 6720 ft 174 kts 139°
2026-04-21 19:43 -12.49107 -39.21696 6486 ft 174 kts 139°
2026-04-21 19:43 -12.50036 -39.20888 6252 ft 173 kts 139°
2026-04-21 19:44 -12.50950 -39.20091 6013 ft 173 kts 139°
2026-04-21 19:44 -12.51871 -39.19290 5774 ft 172 kts 139°
2026-04-21 19:44 -12.52783 -39.18494 5535 ft 171 kts 138°
2026-04-21 19:44 -12.53698 -39.17699 5292 ft 171 kts 139°
2026-04-21 19:45 -12.54597 -39.16913 5053 ft 170 kts 138°
2026-04-21 19:45 -12.55507 -39.16122 4814 ft 170 kts 139°
2026-04-21 19:45 -12.56401 -39.15341 4579 ft 169 kts 139°
2026-04-21 19:45 -12.57306 -39.14552 4342 ft 169 kts 139°
2026-04-21 19:46 -12.58204 -39.13768 4110 ft 168 kts 139°
2026-04-21 19:46 -12.59073 -39.13009 4017 ft 161 kts 139°
2026-04-21 19:46 -12.59933 -39.12258 4011 ft 159 kts 139°
2026-04-21 19:46 -12.60769 -39.11531 4015 ft 157 kts 139°
2026-04-21 19:47 -12.61612 -39.10795 4015 ft 157 kts 139°
2026-04-21 19:47 -12.62441 -39.10072 4013 ft 157 kts 138°
2026-04-21 19:47 -12.63274 -39.09344 4011 ft 156 kts 139°
2026-04-21 19:47 -12.64100 -39.08624 4012 ft 156 kts 139°
2026-04-21 19:48 -12.64935 -39.07894 4009 ft 156 kts 139°
2026-04-21 19:48 -12.65760 -39.07178 4008 ft 146 kts 139°
2026-04-21 19:48 -12.66487 -39.06548 4009 ft 131 kts 139°
2026-04-21 19:48 -12.67167 -39.05953 4012 ft 127 kts 138°
2026-04-21 19:49 -12.67843 -39.05357 4018 ft 128 kts 138°
2026-04-21 19:49 -12.68535 -39.04749 4017 ft 130 kts 139°
2026-04-21 19:49 -12.69226 -39.04143 4018 ft 130 kts 139°
2026-04-21 19:49 -12.69912 -39.03544 4016 ft 130 kts 139°
2026-04-21 19:50 -12.70375 -39.03139 4016 ft 130 kts 139°
2026-04-21 19:50 -12.71299 -39.02332 4016 ft 129 kts 139°
2026-04-21 19:50 -12.71988 -39.01731 4018 ft 129 kts 139°
2026-04-21 19:50 -12.72675 -39.01129 4020 ft 129 kts 139°
2026-04-21 19:51 -12.73363 -39.00526 4023 ft 129 kts 138°
2026-04-21 19:51 -12.74052 -38.99924 4027 ft 130 kts 138°
2026-04-21 19:51 -12.74736 -38.99325 4030 ft 130 kts 138°
2026-04-21 19:51 -12.75430 -38.98716 4031 ft 130 kts 138°
2026-04-21 19:52 -12.76116 -38.98114 4029 ft 130 kts 139°
2026-04-21 19:52 -12.76806 -38.97509 4028 ft 130 kts 138°
2026-04-21 19:52 -12.77495 -38.96906 4025 ft 130 kts 138°
2026-04-21 19:52 -12.78192 -38.96294 4021 ft 130 kts 139°
2026-04-21 19:53 -12.78887 -38.95686 4017 ft 131 kts 139°
2026-04-21 19:53 -12.79577 -38.95081 4012 ft 130 kts 139°
2026-04-21 19:53 -12.80268 -38.94475 4011 ft 130 kts 139°
2026-04-21 19:53 -12.80963 -38.93867 4011 ft 130 kts 138°
2026-04-21 19:54 -12.81654 -38.93259 4013 ft 130 kts 138°
2026-04-21 19:54 -12.82345 -38.92655 4011 ft 130 kts 138°
2026-04-21 19:54 -12.83036 -38.92049 4008 ft 130 kts 139°
2026-04-21 19:54 -12.83727 -38.91444 4008 ft 130 kts 138°
2026-04-21 19:55 -12.84412 -38.90841 4006 ft 130 kts 139°
2026-04-21 19:55 -12.85107 -38.90232 4006 ft 130 kts 138°
2026-04-21 19:55 -12.85804 -38.89621 4007 ft 130 kts 138°
2026-04-21 19:55 -12.86451 -38.88971 4004 ft 130 kts 121°
2026-04-21 19:56 -12.86807 -38.88117 4007 ft 131 kts 114°
2026-04-21 19:56 -12.87135 -38.87249 4006 ft 131 kts 112°
2026-04-21 19:56 -12.87454 -38.86368 4005 ft 131 kts 112°
2026-04-21 19:56 -12.87769 -38.85484 4005 ft 131 kts 112°
2026-04-21 19:57 -12.88081 -38.84602 4004 ft 131 kts 112°
2026-04-21 19:57 -12.88388 -38.83729 4003 ft 131 kts 112°
2026-04-21 19:57 -12.88697 -38.82850 4003 ft 130 kts 112°
2026-04-21 19:57 -12.89002 -38.81973 4002 ft 130 kts 112°
2026-04-21 19:58 -12.89306 -38.81092 4002 ft 131 kts 111°
2026-04-21 19:58 -12.89613 -38.80204 4001 ft 131 kts 111°
2026-04-21 19:58 -12.89918 -38.79319 4001 ft 131 kts 111°
2026-04-21 19:58 -12.90223 -38.78440 4001 ft 131 kts 112°
2026-04-21 19:59 -12.90529 -38.77558 3999 ft 131 kts 112°
2026-04-21 19:59 -12.90836 -38.76669 3999 ft 131 kts 112°
2026-04-21 19:59 -12.91146 -38.75781 3998 ft 131 kts 112°
2026-04-21 19:59 -12.91457 -38.74887 3999 ft 133 kts 111°
2026-04-21 20:00 -12.91764 -38.74005 3997 ft 132 kts 112°
2026-04-21 20:00 -12.92071 -38.73117 3996 ft 130 kts 112°
2026-04-21 20:00 -12.92378 -38.72238 3996 ft 130 kts 111°
2026-04-21 20:00 -12.92679 -38.71371 3996 ft 131 kts 112°
2026-04-21 20:01 -12.93005 -38.70422 4003 ft 146 kts 111°
2026-04-21 20:01 -12.93358 -38.69410 4001 ft 153 kts 111°
2026-04-21 20:01 -12.93713 -38.68396 4072 ft 145 kts 111°
2026-04-21 20:01 -12.94055 -38.67417 4002 ft 144 kts 111°
2026-04-21 20:02 -12.94386 -38.66460 3997 ft 141 kts 112°
2026-04-21 20:02 -12.94711 -38.65524 4000 ft 140 kts 112°
2026-04-21 20:02 -12.95040 -38.64578 4001 ft 139 kts 112°
2026-04-21 20:02 -12.95364 -38.63643 4000 ft 140 kts 112°
2026-04-21 20:03 -12.95691 -38.62701 3999 ft 140 kts 111°
2026-04-21 20:03 -12.96019 -38.61756 4001 ft 140 kts 111°
2026-04-21 20:03 -12.96345 -38.60807 3906 ft 145 kts 110°
2026-04-21 20:03 -12.96335 -38.59736 3654 ft 156 kts 83°
2026-04-21 20:04 -12.96152 -38.58648 3416 ft 157 kts 84°
2026-04-21 20:04 -12.95928 -38.57542 3171 ft 157 kts 84°
2026-04-21 20:04 -12.95713 -38.56446 2926 ft 157 kts 83°
2026-04-21 20:04 -12.95493 -38.55346 2681 ft 157 kts 83°
2026-04-21 20:05 -12.95276 -38.54265 2514 ft 152 kts 83°
2026-04-21 20:05 -12.95068 -38.53224 2497 ft 145 kts 84°
2026-04-21 20:05 -12.94865 -38.52219 2501 ft 143 kts 84°
2026-04-21 20:05 -12.94667 -38.51224 2501 ft 142 kts 84°
2026-04-21 20:06 -12.94473 -38.50241 2501 ft 142 kts 83°
2026-04-21 20:06 -12.94274 -38.49201 2280 ft 152 kts 84°
2026-04-21 20:06 -12.94063 -38.48118 2032 ft 155 kts 84°
2026-04-21 20:06 -12.93850 -38.47039 1790 ft 155 kts 84°
2026-04-21 20:07 -12.93635 -38.45975 1710 ft 149 kts 84°
2026-04-21 20:07 -12.93441 -38.45063 2052 ft 114 kts 84°
2026-04-21 20:07 -12.93270 -38.44186 1798 ft 135 kts 84°
2026-04-21 20:07 -12.93088 -38.43273 1771 ft 128 kts 85°
2026-04-21 20:08 -12.92905 -38.42381 1739 ft 127 kts 84°
2026-04-21 20:08 -12.92723 -38.41481 1637 ft 130 kts 84°
2026-04-21 20:08 -12.92546 -38.40590 1553 ft 128 kts 84°
2026-04-21 20:08 -12.92360 -38.39674 1408 ft 133 kts 84°
2026-04-21 20:09 -12.92174 -38.38748 1292 ft 131 kts 84°
2026-04-21 20:09 -12.91975 -38.37823 1122 ft 136 kts 82°
2026-04-21 20:09 -12.91776 -38.36845 757 ft 145 kts 86°
2026-04-21 20:09 -12.91564 -38.35847 508 ft 142 kts 82°
2026-04-21 20:10 -12.91395 -38.34915 328 ft 126 kts 83°
2026-04-21 20:10 -12.91216 -38.34056 152 ft 126 kts 86°
2026-04-21 20:10 -12.91050 -38.33260 46 ft 97 kts 85°
2026-04-21 20:10 -12.90995 -38.32753 37 ft 51 kts 109°